Flight Track Log - Related Links

Times and Time Zones

All times are in EST time to prevent confusion due to time zone crossing. See the SWA276 flight status page for this flight to view local times or setup timezone preferences in your user account.

Time Position Orientation Groundspeed Altitude Reporting Facility
EST Latitude Longitude Course Direction KTS MPH feet Rate Location/Type
Mon 01:11:27 AM 32.8147 -117.3375 309° West 245 282 5,600  Level Los Angeles Center
Mon 01:12:28 AM 32.8669 -117.4078 312° West 278 320 9,100 2,852 Climbing Los Angeles Center
Mon 01:13:29 AM 32.9219 -117.4822 311° West 293 337 11,400 2,705 Climbing Los Angeles Center
Mon 01:14:30 AM 32.9850 -117.5689 311° West 328 377 14,600 3,197 Climbing Los Angeles Center
Mon 01:15:00 AM 33.1283 -117.7449 320° Northwest  Level FlightAware Approximate
Mon 01:15:31 AM 33.0525 -117.6581 312° West 347 399 17,900  Level Los Angeles Center
Mon 01:16:32 AM 33.1211 -117.7522 311° West 363 418 21,000 2,803 Climbing Los Angeles Center
Mon 01:17:33 AM 33.1933 -117.8508 311° West 380 437 23,600 2,410 Climbing Los Angeles Center
Mon 01:18:34 AM 33.2742 -117.9481 315° West 396 456 25,900 2,195 Climbing Los Angeles Center
Mon 01:19:36 AM 33.3569 -118.0472 315° West 410 472 28,100 2,000 Climbing Los Angeles Center
Mon 01:20:37 AM 33.4422 -118.1475 316° Northwest 422 486 30,000 2,066 Climbing Los Angeles Center
Mon 01:21:38 AM 33.5619 -118.2494 325° Northwest 438 504 32,300 2,016 Climbing Los Angeles Center
Mon 01:22:39 AM 33.6408 -118.3636 310° West 438 504 34,100 1,574 Climbing Los Angeles Center
Mon 01:23:40 AM 33.7519 -118.4233 336° Northwest 448 516 35,500 934 Climbing Los Angeles Center
Mon 01:24:41 AM 33.8581 -118.4672 341° North 448 516 36,000 246 Climbing Los Angeles Center
Mon 01:25:42 AM 33.9744 -118.5153 341° North 442 509 36,000  Level Los Angeles Center
Mon 01:26:43 AM 34.0892 -118.5622 341° North 437 503 36,000  Level Los Angeles Center
Mon 01:27:44 AM 34.2261 -118.6197 341° North 434 499 36,000  Level Los Angeles Center
Mon 01:28:45 AM 34.3406 -118.6667 341° North 434 499 36,000 738 Level Los Angeles Center
Mon 01:29:46 AM 34.4561 -118.7156 341° North 438 504 37,500 1,377 Climbing Los Angeles Center
Mon 01:30:47 AM 34.5711 -118.7647 341° North 437 503 38,800 984 Climbing Los Angeles Center
Mon 01:31:48 AM 34.6856 -118.8128 341° North 436 502 39,500 590 Climbing Los Angeles Center
Mon 01:32:49 AM 34.8014 -118.8656 339° North 444 511 40,000 246 Climbing Los Angeles Center
Mon 01:33:50 AM 34.9014 -118.9578 323° Northwest 429 494 40,000  Level Los Angeles Center
Mon 01:34:51 AM 34.9956 -119.0489 322° Northwest 431 496 40,000  Level Los Angeles Center
Mon 01:35:52 AM 35.0881 -119.1400 321° Northwest 431 496 40,000  Level Los Angeles Center
Mon 01:36:52 AM 35.1828 -119.2325 321° Northwest 436 502 40,000  Level Los Angeles Center
Mon 01:37:53 AM 35.2747 -119.3231 321° Northwest 430 495 40,000  Level Los Angeles Center
Mon 01:38:54 AM 35.3678 -119.4142 321° Northwest 430 495 40,000  Level Los Angeles Center
Mon 01:39:55 AM 35.4594 -119.5050 321° Northwest 426 490 40,000  Level Los Angeles Center
Mon 01:40:56 AM 35.5500 -119.5956 321° Northwest 424 488 40,000  Level Los Angeles Center
Mon 01:41:57 AM 35.6586 -119.7039 321° Northwest 423 487 40,000  Level Los Angeles Center
Mon 01:42:58 AM 35.7494 -119.7947 321° Northwest 423 487 40,000  Level Los Angeles Center
Mon 01:43:59 AM 35.8408 -119.8869 321° Northwest 428 493 40,000  Level Los Angeles Center
Mon 01:44:59 AM 35.9317 -119.9800 320° Northwest 429 494 40,000 -149 Level Los Angeles Center
Mon 01:46:00 AM 36.0228 -120.0714 321° Northwest 425 489 39,700 -689 Descending Los Angeles Center
Mon 01:47:01 AM 36.1147 -120.1661 320° Northwest 431 496 38,600 -934 Descending Los Angeles Center
Mon 01:48:02 AM 36.2069 -120.2611 320° Northwest 433 498 37,800 -892 Descending Los Angeles Center
Mon 01:49:29 AM 36.3358 -120.3894 321° Northwest 429 494 36,400 -735 Descending Oakland Center
Mon 01:50:29 AM 36.4281 -120.4839 321° Northwest 429 494 36,000 -248 Descending Oakland Center
Mon 01:51:30 AM 36.5203 -120.5800 320° Northwest 432 497 35,900 -2,231 Descending Oakland Center
Mon 01:52:30 AM 36.6331 -120.6953 321° Northwest 435 501 31,500 -4,165 Descending Oakland Center
Mon 01:53:31 AM 36.7319 -120.7964 321° Northwest 446 513 27,500 -3,471 Descending Oakland Center
Mon 01:54:31 AM 36.8256 -120.9067 317° Northwest 455 524 24,500 -2,628 Descending Oakland Center
Mon 01:55:32 AM 36.9119 -121.0097 316° Northwest 430 495 22,200 -2,231 Descending Oakland Center
Mon 01:56:32 AM 36.9950 -121.1014 319° Northwest 401 461 20,000 -2,132 Descending Oakland Center
Mon 01:57:33 AM 37.0683 -121.1869 317° Northwest 384 442 17,900 -2,231 Descending Oakland Center
Mon 01:58:33 AM 37.1469 -121.2764 318° Northwest 366 421 15,500 -2,331 Descending Oakland Center
Mon 01:59:34 AM 37.2150 -121.3564 317° Northwest 337 388 13,200 -2,380 Descending Oakland Center
Mon 02:00:34 AM 37.2817 -121.4336 317° Northwest 325 374 10,700 -1,736 Descending Oakland Center
Mon 02:01:35 AM 37.3442 -121.5072 317° Northwest 310 357 9,700 -1,175 Descending Oakland Center
Mon 02:02:11 AM 37.3833 -121.5500 319° Northwest 284 327 8,800 -1,500 Descending Northern Cal TRACON
Mon 02:03:11 AM 37.4333 -121.6167 313° West 282 325 7,300 -1,200 Descending Northern Cal TRACON
Mon 02:04:11 AM 37.4833 -121.6833 313° West 262 302 6,400 -900 Descending Northern Cal TRACON
Mon 02:05:11 AM 37.5167 -121.7667 297° West 245 282 5,500 -737 Descending Northern Cal TRACON
Mon 02:06:05 AM 37.5333 -121.8333 288° West 230 265 5,000 -368 Descending Northern Cal TRACON
Mon 02:07:05 AM 37.5667 -121.9167 297° West 229 264 4,800 -300 Descending Northern Cal TRACON
Mon 02:08:05 AM 37.5833 -121.9833 288° West 216 249 4,400 -650 Descending Northern Cal TRACON
Mon 02:09:05 AM 37.6000 -122.0500 288° West 207 238 3,500 -1,000 Descending Northern Cal TRACON
Mon 02:10:05 AM 37.6333 -122.1000 310° West 179 206 2,400 -1,000 Descending Northern Cal TRACON
Mon 02:11:05 AM 37.6500 -122.1500 293° West 155 178 1,500 -800 Descending Northern Cal TRACON
Mon 02:12:05 AM 37.6833 -122.1833 322° Northwest 142 163 800 -700 Descending Northern Cal TRACON
Mon 02:14:00 AM 37.7167 -122.2167 270° West  Level FlightAware Approximate
Mon 02:21:00 AM 37.7213 -122.2212 270° West  Level Estimated

Login

Don't have an account? Register now (free) for customized features, flight alerts, and more!